Weather reports worldwide

Advertisment
Dobbiaco, Italy (16033): temperature & dewpoint: 29.06.2020 13:00:00 - 05.07.2020 13:00:00 (CEST)Dobbiaco, Italy (16033): wind speed: 29.06.2020 13:00:00 - 05.07.2020 13:00:00 (CEST)Dobbiaco, Italy (16033): wind direction: 29.06.2020 13:00:00 - 05.07.2020 13:00:00 (CEST)Dobbiaco, Italy (16033): visibility: 29.06.2020 13:00:00 - 05.07.2020 13:00:00 (CEST)
Date & Time tt [°C] td [°C] ff [km/h] ff [kn] dd vv [km]
05.07.2020 13:00:00 - - - - - -
05.07.2020 12:00:00 22,0 6,0 - - - 10
05.07.2020 11:00:00 20,0 6,0 0 0 N 30
05.07.2020 10:00:00 18,0 9,0 - - - 10
05.07.2020 09:00:00 17,0 11,0 - - - 10
05.07.2020 08:00:00 14,7 10,9 0 0 N 22
05.07.2020 07:00:00 - - - - - -
05.07.2020 06:00:00 - - - - - -
05.07.2020 05:00:00 - - - - - -
05.07.2020 04:00:00 - - - - - -
05.07.2020 03:00:00 - - - - - -
05.07.2020 02:00:00 - - - - - -
05.07.2020 01:00:00 - - - - - -
05.07.2020 00:00:00 - - - - - -
04.07.2020 23:00:00 - - - - - -
04.07.2020 22:00:00 - - - - - -
04.07.2020 21:00:00 - - - - - -
04.07.2020 20:00:00 20,9 6,1 22 12 E 25
04.07.2020 19:00:00 24,0 3,0 - - - 10
04.07.2020 18:00:00 24,0 2,0 - - - 10
04.07.2020 17:00:00 23,6 1,9 5 3 W 25
04.07.2020 16:00:00 23,0 4,0 - - - 10
04.07.2020 15:00:00 22,0 5,0 - - - 10
04.07.2020 14:00:00 21,4 5,7 0 0 N 25
04.07.2020 13:00:00 20,0 9,0 - - - 10
04.07.2020 12:00:00 19,0 8,0 - - - 10
04.07.2020 11:00:00 17,6 8,7 0 0 N 25
04.07.2020 10:00:00 16,0 9,0 - - - 10
04.07.2020 09:00:00 14,0 10,0 - - - 10
04.07.2020 08:00:00 13,8 11,5 5 3 E 15
04.07.2020 07:00:00 - - - - - -
04.07.2020 06:00:00 - - - - - -
04.07.2020 05:00:00 - - - - - -
04.07.2020 04:00:00 - - - - - -
04.07.2020 03:00:00 - - - - - -
04.07.2020 02:00:00 - - - - - -
04.07.2020 01:00:00 - - - - - -
04.07.2020 00:00:00 - - - - - -
03.07.2020 23:00:00 - - - - - -
03.07.2020 22:00:00 - - - - - -
03.07.2020 21:00:00 - - - - - -
03.07.2020 20:00:00 17,2 10,3 18 10 E 12
03.07.2020 19:00:00 18,0 11,0 - - - 10
03.07.2020 18:00:00 19,0 10,0 - - - 10
03.07.2020 17:00:00 19,6 10,6 11 6 E 18
03.07.2020 16:00:00 19,0 11,0 - - - 10
03.07.2020 15:00:00 19,0 9,0 - - - 10
03.07.2020 14:00:00 19,0 11,1 8 4 E 18
03.07.2020 13:00:00 18,0 11,0 - - - 10
03.07.2020 12:00:00 17,0 11,0 - - - 10
03.07.2020 11:00:00 16,0 11,4 5 3 E 15
03.07.2020 10:00:00 15,0 12,0 - - - 10
03.07.2020 09:00:00 14,0 12,0 - - - 10
03.07.2020 08:00:00 13,4 11,5 0 0 N 12
03.07.2020 07:00:00 - - - - - -
03.07.2020 06:00:00 - - - - - -
03.07.2020 05:00:00 - - - - - -
03.07.2020 04:00:00 - - - - - -
03.07.2020 03:00:00 - - - - - -
03.07.2020 02:00:00 - - - - - -
03.07.2020 01:00:00 - - - - - -
03.07.2020 00:00:00 - - - - - -
02.07.2020 23:00:00 - - - - - -
02.07.2020 22:00:00 - - - - - -
02.07.2020 21:00:00 - - - - - -
02.07.2020 20:00:00 19,6 12,9 13 7 ESE 25
02.07.2020 19:00:00 20,0 12,0 - - - 10
02.07.2020 18:00:00 20,0 12,0 - - - 10
02.07.2020 17:00:00 20,3 12,0 13 7 E 30
02.07.2020 16:00:00 21,0 13,0 - - - 10
02.07.2020 15:00:00 21,0 13,0 - - - 10
02.07.2020 14:00:00 19,9 14,0 8 4 E 28
02.07.2020 13:00:00 19,0 13,0 - - - 10
02.07.2020 12:00:00 18,0 15,0 - - - 10
02.07.2020 11:00:00 19,0 13,2 4 2 NNW 20
02.07.2020 10:00:00 18,0 14,0 - - - 10
02.07.2020 09:00:00 17,0 13,0 - - - 10
02.07.2020 08:00:00 15,4 13,8 0 0 N 15
02.07.2020 07:00:00 - - - - - -
02.07.2020 06:00:00 - - - - - -
02.07.2020 05:00:00 - - - - - -
02.07.2020 04:00:00 - - - - - -
02.07.2020 03:00:00 - - - - - -
02.07.2020 02:00:00 - - - - - -
02.07.2020 01:00:00 - - - - - -
02.07.2020 00:00:00 - - - - - -
01.07.2020 23:00:00 - - - - - -
01.07.2020 22:00:00 - - - - - -
01.07.2020 21:00:00 - - - - - -
01.07.2020 20:00:00 16,8 15,2 8 4 E 15
01.07.2020 19:00:00 17,0 15,0 - - - 10
01.07.2020 18:00:00 18,0 14,0 9 5 - 10
01.07.2020 17:00:00 18,2 15,6 0 0 N 12
01.07.2020 16:00:00 - - - - - -
01.07.2020 15:00:00 18,0 15,0 - - - 10
01.07.2020 14:00:00 20,4 15,8 8 4 E 15
01.07.2020 13:00:00 22,0 17,0 - - - 10
01.07.2020 12:00:00 22,0 14,0 - - - 10
01.07.2020 11:00:00 21,6 14,7 0 0 N 15
01.07.2020 10:00:00 20,0 15,0 - - - 10
01.07.2020 09:00:00 19,0 15,0 - - - 10
01.07.2020 08:00:00 16,7 15,1 4 2 - 10
01.07.2020 07:00:00 - - - - - -
01.07.2020 06:00:00 - - - - - -
01.07.2020 05:00:00 - - - - - -
01.07.2020 04:00:00 - - - - - -
01.07.2020 03:00:00 - - - - - -
01.07.2020 02:00:00 - - - - - -
01.07.2020 01:00:00 - - - - - -
01.07.2020 00:00:00 - - - - - -
30.06.2020 23:00:00 - - - - - -
30.06.2020 22:00:00 - - - - - -
30.06.2020 21:00:00 - - - - - -
30.06.2020 20:00:00 20,0 14,4 13 7 E 25
30.06.2020 19:00:00 21,0 14,0 - - - 10
30.06.2020 18:00:00 22,0 13,0 - - - 10
30.06.2020 17:00:00 22,2 13,5 5 3 E 25
30.06.2020 16:00:00 22,0 14,0 - - - 10
30.06.2020 15:00:00 21,0 13,0 - - - 10
30.06.2020 14:00:00 21,0 13,0 9 5 E 25
30.06.2020 13:00:00 18,0 12,0 - - - 10
30.06.2020 12:00:00 18,0 12,0 - - - 10
30.06.2020 11:00:00 16,0 11,8 11 6 E 25
30.06.2020 10:00:00 15,0 12,0 - - - 10
30.06.2020 09:00:00 14,0 13,0 5 3 E 10
30.06.2020 08:00:00 13,4 12,5 0 0 N 12
30.06.2020 07:00:00 - - - - - -
30.06.2020 06:00:00 - - - - - -
30.06.2020 05:00:00 - - - - - -
30.06.2020 04:00:00 - - - - - -
30.06.2020 03:00:00 - - - - - -
30.06.2020 02:00:00 - - - - - -
30.06.2020 01:00:00 - - - - - -
30.06.2020 00:00:00 - - - - - -
29.06.2020 23:00:00 - - - - - -
29.06.2020 22:00:00 - - - - - -
29.06.2020 21:00:00 - - - - - -
29.06.2020 20:00:00 17,0 11,5 11 6 E 25
29.06.2020 19:00:00 18,0 11,0 - - - 10
29.06.2020 18:00:00 19,0 12,0 - - - 10
29.06.2020 17:00:00 19,0 11,1 8 4 E 25
29.06.2020 16:00:00 18,0 12,0 - - - 10
29.06.2020 15:00:00 17,0 11,0 - - - 10
29.06.2020 14:00:00 15,2 13,2 0 0 N 12
29.06.2020 13:00:00 15,0 12,0 - - - 6

tt = temperature
td = dewpoint
ff = wind speed
dd = wind direction
vv = visibility

Next stations